Location: Cumbre Roja
(10.2766°N, 67.0675°W)
Time: 23:46:03
(UTC+00:00)

SL-19 R/B - Pass Details

Date: 18 November 2025
Orbit: 795 x 1007 km, 99.6° (Epoch: 14 December)

Event Time Altitude Azimuth Distance (km) Brightness Sun altitude
Rises 23:09:34 0° 158° (SSE) 3,402 7.3 -16.5°
Reaches altitude 10° 23:12:00 10° 154° (SSE) 2,440 6.5 -17.1°
Maximum altitude 23:17:15 57° 76° (ENE) 949 4.1 -18.3°
Drops below altitude 10° 23:22:20 10° 358° (N) 2,365 6.4 -19.5°
Sets 23:24:39 0° 354° (N) 3,288 7.2 -20.0°
